Dewpoint
1 2 2 -0 -2 -3 -2 -2 -2 -4 -5 -3 -3 -4 -5 -6 -3 -2 -1 -0 0 0 -0 0 0 -0 -1 -3 -4 -5 -6 -7 -8 -9 -9 -7 -9 -13 -15 -20 -25 -28 -28 -28
2 3 0 -1 -1 -1 -1 -0 -0 -2 -3 -2 -2 -2 -5 -6 -4 -4 -3 -1 -0 -0 -0 0 1 -0 -1 -2 -2 -4 -6 -7 -9 -9 -10 -11 -13 -14 -20 -25 -28 -29 -30 -31
3 0 -1 0 0 0 0 1 1 0 -1 -2 -1 -1 -2 -5 -6 -5 -4 -3 -1 -0 -0 0 0 -0 0 -0 -3 -4 -6 -7 -9 -9 -9 -10 -13 -15 -15 -21 -26 -30 -31 -33
1 0 1 1 1 1 3 -0 -0 0 1 3 -2 2 -3 -5 -6 -6 -4 -3 -2 -1 -0 -0 -0 -0 -0 -0 -3 -5 -6 -7 -8 -8 -9 -11 -12 -11 -21 -26 -29 -31 -33 -34
2 1 1 2 1 -0 1 -0 0 1 2 2 1 2 -2 -4 -5 -4 -5 -4 -2 -1 -1 -0 -1 -1 -1 -1 -4 -5 -6 -7 -7 -8 -10 -11 -15 -17 -22 -28 -30 -32 -34 -35
1 -0 -1 -0 -1 -1 -1 -0 -1 -2 -0 4 1 1 -0 -3 -3 -5 -5 -4 -2 -2 -1 -1 -1 -1 -1 -1 -3 -5 -6 -6 -7 -9 -9 -14 -15 -18 -21 -28 -23 -31 -34 -34
3 3 1 -2 -0 -2 -1 -0 4 4 2 2 -4 -1 -1 -5 -5 -5 -4 -4 -2 -2 -1 -1 -1 -1 -1 -1 -3 -4 -5 -6 -7 -9 -10 -14 -14 -19 -25 -30 -31 -33 -30 -32
2 3 2 1 1 1 -0 0 3 4 3 1 -3 -1 -2 -3 -1 -1 -1 -3 -3 -2 -1 -1 -1 -1 -2 -2 -4 -4 -5 -5 -8 -9 -11 -14 -16 -21 -26 -29 -32 -35 -34 -34
3 2 -2 1 0 1 1 3 -0 3 3 6 3 -0 -2 -2 -1 -1 -1 -1 -2 -2 -1 -1 -1 -1 -2 -3 -3 -4 -5 -6 -9 -10 -11 -14 -17 -22 -26 -29 -33 -35 -35 -35
2 3 -2 -3 -2 0 1 -1 5 6 9 7 3 1 4 4 -1 0 3 -0 -0 -1 -1 -0 -1 -1 -2 -3 -4 -4 -5 -7 -10 -11 -13 -17 -18 -22 -25 -29 -34 -35 -34 -32
-0 3 0 -2 -2 -2 -0 2 0 -1 1 5 6 5 -2 0 4 -0 6 1 0 -1 -1 -0 -1 -1 -2 -3 -4 -4 -6 -8 -10 -12 -15 -16 -19 -21 -25 -28 -32 -34 -34 -32
-2 4 4 1 -2 -4 -4 -3 -2 4 5 2 5 7 -2 -3 -2 -1 2 1 1 0 0 -0 -0 -1 -2 -3 -4 -4 -6 -7 -11 -13 -15 -15 -18 -22 -23 -25 -27 -30 -31 -31
4 5 4 -0 -2 -3 -1 -2 -2 -2 -0 3 7 6 -3 -3 -3 -1 1 1 0 1 0 -0 -0 -1 -2 -3 -3 -5 -6 -9 -12 -14 -14 -16 -19 -20 -22 -21 -23 -25 -27 -30
1 5 6 6 1 2 5 -0 1 4 7 4 3 1 -2 -2 -1 1 0 2 1 1 1 -1 -1 -2 -3 -3 -4 -5 -7 -10 -13 -13 -13 -15 -18 -19 -20 -20 -21 -22 -25 -29
-0 4 0 0 -1 -2 1 3 2 3 3 5 4 1 -1 -3 -3 -2 -2 1 1 0 0 -1 -2 -2 -3 -3 -4 -6 -7 -9 -12 -12 -13 -14 -16 -17 -17 -18 -19 -20 -25 -29
-2 3 1 3 -1 -1 1 1 1 1 -0 0 0 1 -3 -4 -3 -2 -2 -1 -0 -0 -0 -1 -1 -2 -2 -3 -5 -6 -7 -8 -9 -10 -9 -13 -14 -15 -15 -17 -18 -19 -23 -27
-1 0 2 3 -2 -2 3 3 1 -1 -2 -1 1 -0 -3 -3 -2 -2 -3 -1 -1 -1 -1 -1 -1 -1 -2 -3 -4 -6 -6 -7 -8 -8 -7 -8 -10 -10 -11 -12 -14 -15 -19 -26
-1 -0 1 1 -0 3 -4 -7 -6 -4 -4 -3 -1 -2 -3 -5 -5 -4 -2 -1 -1 -1 -1 -1 -2 -2 -2 -3 -4 -6 -6 -6 -9 -7 -7 -7 -7 -8 -9 -10 -10 -12 -14 -17
-2 -0 2 2 -2 -5 -7 -8 -6 -2 -3 -5 -3 -3 -3 -5 -3 -3 -3 -2 1 0 -1 -3 -5 -4 -2 -3 -4 -5 -6 -6 -7 -7 -7 -7 -7 -8 -9 -9 -10 -11 -13 -17
-1 1 3 2 2 -1 -7 -6 -7 -5 1 -5 -6 -2 -2 -4 -1 -2 -2 -2 -1 0 -1 -3 -4 -3 -2 -2 -3 -4 -4 -5 -5 -6 -7 -8 -7 -8 -8 -9 -9 -10 -13 -22
1 3 4 3 4 3 -5 -4 -6 -1 -1 -4 -6 -6 -5 -4 -4 -3 -0 0 -0 -1 -1 -2 -3 -2 -1 -2 -3 -4 -4 -4 -5 -5 -8 -10 -10 -13 -14 -9 -9 -10 -12 -18
-4 1 1 2 2 1 -1 -3 -2 -1 -3 -3 -4 -4 -4 -4 -1 -0 1 0 -1 -2 -3 -2 -2 -1 -1 -2 -3 -4 -4 -4 -5 -6 -7 -8 -9 -11 -10 -11 -13 -12 -15 -22
1 -2 -2 -0 0 -1 -1 -1 -1 -1 -1 -2 -3 -3 -2 -1 -1 1 0 -2 -1 -2 -2 -3 -2 -1 -2 -3 -3 -4 -6 -6 -7 -7 -8 -8 -8 -10 -10 -9 -13 -11 -12 -16
-4 -4 -0 0 -3 -3 -4 -0 1 0 -1 -1 -2 -1 -1 -1 -1 0 -1 -1 -2 -2 -3 -3 -2 -2 -2 -4 -5 -6 -7 -7 -7 -8 -8 -9 -10 -10 -10 -10 -10 -11 -12 -13
-4 -4 -3 -3 -5 -5 -3 -1 -2 -1 -2 -3 -3 -1 -1 -2 -2 -2 -2 -3 -3 -5 -4 -3 -2 -3 -3 -4 -6 -7 -7 -8 -8 -8 -9 -10 -11 -11 -11 -12 -12 -13 -13 -13
-5 -4 -3 -2 -6 -4 -5 -6 -3 -1 -2 -2 -2 -0 -1 -0 -1 0 -0 -2 -4 -3 -3 -3 -2 -3 -4 -5 -6 -7 -7 -8 -8 -10 -11 -11 -11 -12 -13 -14 -14 -16 -16 -18
Wind_Speed
13 10 14 14 15 18 12 12 14 9 5 6 13 16 17 17 18 18 22 25 27 27 24 22 20 18 16 14 12 11 9 6 4 2 3 4 5 10 12 12 12 12 13 14
16 18 18 15 13 15 16 15 16 15 10 10 16 20 19 17 23 27 29 29 29 28 27 25 22 19 17 15 13 13 10 7 5 2 0 2 5 7 8 9 11 11 13 15
24 12 4 13 16 16 18 17 15 14 9 14 16 25 26 24 22 25 22 24 26 31 29 28 25 21 18 16 15 13 12 9 6 3 1 3 4 5 7 9 10 12 14 15
19 24 26 19 19 16 19 14 12 16 12 11 2 12 9 8 17 17 22 24 27 30 29 28 26 23 20 17 17 16 14 10 6 4 2 1 1 1 8 8 10 12 14 15
8 8 15 23 25 16 15 7 11 12 15 16 17 8 7 6 14 16 20 26 28 30 31 30 28 25 21 20 19 17 14 10 8 5 3 2 2 7 8 9 10 11 12 12
15 5 6 11 8 13 6 7 7 7 9 13 17 16 22 15 17 14 18 23 26 29 31 30 28 26 23 21 20 19 16 14 10 5 2 1 4 6 6 8 6 8 9 10
10 19 14 11 9 6 15 11 5 8 7 10 2 11 18 3 4 6 12 21 25 29 32 33 32 29 25 24 23 22 20 14 9 6 3 2 5 6 6 6 6 6 7 8
7 8 13 17 20 13 20 17 9 11 12 13 8 10 7 3 3 6 6 15 21 27 31 33 34 30 27 26 26 25 20 15 10 7 5 4 4 5 6 6 6 5 5 5
4 9 2 4 12 15 12 15 17 20 22 12 16 20 12 9 9 10 11 15 22 26 30 32 33 29 27 28 31 24 21 16 12 9 7 5 3 5 5 5 4 3 3 4
7 9 13 12 8 11 15 5 6 9 7 19 15 17 12 6 13 11 10 17 20 23 27 30 33 30 26 35 26 24 21 16 13 10 8 5 5 6 4 3 1 1 3 4
10 3 3 6 8 12 9 13 12 11 14 12 15 14 8 5 12 14 9 17 20 24 27 30 36 28 29 29 29 25 21 18 15 12 9 7 7 5 3 2 1 0 1 2
9 5 11 16 13 15 15 16 16 12 13 13 14 16 3 5 5 8 12 22 19 21 27 28 33 34 30 30 30 27 22 19 16 13 12 9 7 6 4 3 2 2 2 2
3 5 6 11 12 5 12 16 13 12 11 18 13 10 1 4 7 5 9 15 21 19 24 32 32 35 33 30 30 27 23 20 18 16 12 11 9 8 5 4 4 3 3 3
0 2 6 13 15 10 11 11 11 10 5 12 18 21 23 14 10 7 10 12 18 22 24 36 34 35 32 30 30 27 25 23 21 17 15 12 10 8 6 5 4 4 4 4
6 7 15 20 21 21 21 19 23 23 20 11 15 17 24 17 11 6 4 9 17 24 25 30 35 34 33 29 29 27 25 24 22 19 17 14 12 9 7 6 5 4 5 5
12 12 14 20 19 20 24 22 25 25 27 25 24 27 22 21 22 17 28 25 27 28 28 28 28 31 32 29 28 27 26 25 23 21 17 16 14 11 9 7 6 5 5 5
14 10 10 17 16 17 13 24 24 28 24 21 21 31 25 21 14 22 25 27 30 31 29 28 28 29 28 28 28 28 27 25 24 21 19 17 15 13 11 9 8 6 5 5
19 16 12 13 16 18 19 19 17 21 24 22 23 28 23 13 11 8 12 20 27 24 23 22 24 23 24 25 26 25 25 25 24 21 19 18 17 15 13 12 10 8 7 6
21 18 12 13 15 18 24 22 20 14 21 21 23 24 16 12 7 21 17 16 21 21 19 19 20 20 21 24 26 26 26 25 23 23 22 20 17 16 15 13 11 9 7 6
14 16 9 10 13 16 17 4 9 10 17 18 14 15 14 17 12 11 16 15 17 20 21 21 19 19 20 23 25 26 26 25 24 23 24 21 18 17 16 14 13 10 8 6
6 6 13 13 9 5 14 6 7 12 4 15 9 8 12 12 13 4 15 17 20 21 21 19 17 17 19 21 24 24 24 26 24 22 22 21 18 17 17 15 13 12 9 8
11 6 7 8 7 11 13 4 7 8 8 15 14 6 7 10 2 10 18 21 21 21 20 17 17 17 18 21 23 23 23 22 23 21 21 19 18 17 16 16 14 12 11 8
5 10 5 4 2 5 6 7 14 10 13 22 21 11 6 8 8 16 21 21 17 17 18 15 15 18 18 20 21 22 22 24 24 22 20 18 18 17 17 16 15 12 11 9
5 7 5 4 2 6 10 3 8 13 17 19 20 18 9 12 13 18 20 17 17 15 14 15 16 17 19 20 21 21 24 24 23 21 20 19 19 18 17 15 13 12 11 10
5 2 8 11 11 13 7 9 5 10 19 22 16 12 9 11 16 17 16 15 14 14 15 16 17 18 19 21 22 22 23 24 23 21 20 20 19 19 17 15 13 12 11 10
14 12 8 9 9 6 10 8 11 9 10 17 15 8 4 8 10 7 10 14 17 16 16 18 19 18 20 22 23 23 24 24 23 22 22 22 20 19 17 16 16 19 15 12
Wind_Direction
210 227 228 242 236 268 282 267 261 257 172 257 239 251 253 198 211 207 204 200 198 197 191 187 181 177 179 185 178 179 184 175 151 87 30 1 350 343 334 328 326 329 331 333
232 237 245 259 260 253 254 256 252 261 247 251 257 256 253 246 211 213 208 205 202 194 191 187 183 179 180 179 179 186 185 181 166 151 347 340 322 318 318 332 336 337 340 341
233 239 214 252 238 239 240 253 263 266 291 261 272 269 252 237 220 224 218 215 207 199 193 189 185 181 177 177 185 187 190 189 190 188 251 306 308 327 356 341 336 339 342 342
252 253 251 244 239 237 251 244 252 261 263 265 197 283 282 199 215 225 216 212 208 202 200 194 187 181 179 180 187 191 193 195 204 218 236 257 204 238 331 331 339 341 344 341
230 231 228 231 241 233 269 240 240 254 254 266 241 255 269 195 199 210 215 212 207 201 198 195 189 184 180 186 190 192 194 202 216 228 245 32 350 335 332 337 340 341 336 338
257 287 255 241 243 247 254 222 227 233 244 249 241 231 270 240 217 217 208 205 204 199 196 194 190 182 181 184 189 196 200 208 210 220 274 343 325 328 329 329 331 338 338 347
235 234 223 224 211 191 197 194 229 228 213 249 126 226 247 136 116 239 212 199 196 195 193 191 188 184 183 186 191 196 201 208 204 214 240 271 301 307 307 312 325 344 350 347
275 235 201 209 232 217 209 212 231 257 256 274 130 246 259 60 99 198 202 193 192 192 193 193 190 186 186 191 197 204 200 208 200 209 230 259 281 312 310 319 325 335 343 344
299 245 137 221 217 229 239 223 252 265 272 278 262 265 264 181 201 200 197 195 194 193 193 193 190 187 189 194 204 198 202 201 199 212 223 237 284 286 286 290 303 331 343 355
5 281 236 246 221 232 247 264 213 218 244 246 256 256 253 194 232 204 193 198 190 192 192 192 190 188 188 208 201 201 202 196 203 212 217 212 233 243 250 268 285 358 12 21
5 263 251 306 219 243 204 234 235 268 245 260 268 269 316 302 237 221 193 197 190 190 191 190 192 190 196 202 199 202 196 198 202 208 205 208 216 221 218 218 217 121 49 42
298 299 283 272 289 284 273 276 259 240 253 245 256 262 281 310 274 221 201 203 191 192 193 189 193 191 196 199 201 204 199 201 204 205 201 202 204 199 186 195 183 148 110 79
85 212 281 277 252 237 246 258 269 295 286 257 251 255 56 255 260 226 202 195 194 187 198 189 194 193 204 199 204 202 200 201 205 204 202 199 194 189 182 183 177 157 131 104
243 251 275 279 299 337 279 270 283 270 236 259 253 264 257 243 244 216 201 190 192 188 199 200 201 201 207 205 207 202 199 202 204 201 199 199 192 183 175 172 161 143 122 98
242 253 262 262 270 279 268 269 271 268 270 258 274 268 265 269 220 188 286 216 202 192 195 201 205 206 206 203 203 199 199 200 200 199 196 195 192 185 176 167 153 143 124 108
237 250 260 260 258 259 265 264 257 257 258 257 258 267 261 258 240 231 254 234 207 203 195 197 199 205 205 200 200 195 196 195 194 192 187 195 194 187 179 172 161 145 135 121
252 251 255 265 266 272 261 248 249 256 254 250 247 252 259 247 217 219 227 212 207 198 195 195 197 201 203 199 199 194 193 190 190 185 182 186 186 179 177 170 166 153 143 132
244 238 246 262 277 260 268 264 270 267 261 250 246 260 263 267 232 261 243 215 203 193 190 192 196 193 193 190 189 187 186 188 187 183 184 185 181 178 177 173 170 164 157 145
229 238 247 245 253 269 276 270 262 245 263 254 251 256 229 205 257 253 239 225 210 197 186 184 184 185 180 182 182 182 183 186 184 184 186 186 181 180 180 179 175 168 160 156
228 224 223 221 236 250 252 31 333 272 263 276 256 245 224 200 218 231 217 199 184 174 163 164 172 175 179 183 179 179 182 182 184 186 189 185 180 180 182 181 179 172 176 171
207 218 232 240 252 272 282 328 255 224 302 344 320 271 225 204 232 237 167 157 155 154 154 164 170 178 180 181 179 179 182 186 183 183 186 189 190 194 196 186 180 176 175 180
254 241 225 231 243 258 14 269 267 351 323 334 327 306 232 203 203 165 159 152 151 154 165 170 172 174 178 180 179 180 183 182 177 178 180 185 188 188 184 187 187 182 185 189
233 227 280 260 320 349 348 337 325 320 301 303 314 305 264 201 191 170 164 159 155 162 166 168 172 172 177 179 180 180 178 174 175 176 176 177 177 182 179 182 186 180 184 187
250 243 253 293 252 277 297 356 310 289 275 288 302 299 250 213 186 174 165 160 161 163 166 170 177 177 180 179 179 179 176 173 175 175 177 177 178 179 179 180 183 184 186 187
297 217 248 260 277 283 278 255 262 290 274 286 297 295 258 203 175 167 168 171 170 180 189 185 183 185 186 184 179 178 178 176 176 178 179 179 181 179 179 180 182 187 187 190
252 251 258 268 290 297 308 302 267 268 307 290 271 275 256 198 191 179 203 196 202 195 193 190 185 185 187 186 182 183 181 181 179 179 181 182 182 178 180 179 185 193 201 207
Height
1488 1484 1478 1473 1475 1473 1471 1471 1470 1463 1468 1474 1467 1466 1463 1470 1476 1477 1479 1483 1487 1492 1498 1501 1503 1505 1507 1510 1513 1515 1517 1518 1519 1519 1520 1519 1518 1517 1517 1516 1514 1512 1510 1508
1482 1477 1469 1470 1477 1477 1475 1472 1467 1464 1467 1473 1464 1457 1454 1455 1465 1466 1468 1474 1480 1487 1492 1497 1499 1502 1504 1508 1510 1512 1515 1516 1517 1518 1518 1519 1519 1518 1516 1514 1512 1510 1507 1506
1470 1462 1469 1467 1473 1475 1469 1469 1467 1469 1467 1466 1464 1450 1444 1444 1456 1460 1464 1470 1477 1481 1487 1492 1495 1498 1502 1506 1508 1510 1513 1514 1515 1515 1516 1517 1516 1514 1511 1510 1509 1506 1504 1501
1461 1460 1463 1464 1465 1466 1463 1457 1466 1469 1473 1469 1461 1446 1429 1432 1450 1457 1460 1464 1470 1477 1485 1489 1492 1495 1499 1503 1505 1508 1510 1512 1514 1515 1515 1514 1514 1514 1510 1510 1507 1505 1503 1500
1453 1457 1459 1458 1457 1462 1462 1457 1465 1463 1464 1461 1457 1466 1419 1425 1438 1449 1452 1457 1463 1468 1476 1483 1488 1491 1496 1499 1502 1505 1507 1509 1510 1512 1512 1510 1511 1509 1508 1507 1506 1503 1501 1498
1456 1456 1456 1453 1453 1457 1463 1464 1466 1467 1463 1462 1449 1447 1405 1416 1421 1431 1440 1449 1457 1464 1471 1478 1483 1487 1491 1493 1497 1502 1504 1504 1505 1508 1508 1508 1508 1507 1507 1507 1506 1502 1501 1499
1447 1447 1452 1455 1455 1456 1458 1462 1465 1465 1467 1448 1432 1437 1421 1423 1428 1429 1436 1444 1451 1457 1464 1471 1477 1481 1485 1488 1493 1496 1498 1501 1502 1505 1505 1506 1505 1505 1505 1505 1503 1499 1499 1498
1453 1444 1442 1442 1447 1447 1452 1450 1449 1449 1440 1430 1438 1435 1418 1425 1431 1436 1438 1441 1448 1453 1459 1465 1471 1476 1481 1484 1488 1490 1494 1498 1500 1501 1502 1504 1503 1503 1503 1502 1503 1499 1498 1497
1451 1447 1445 1446 1443 1448 1447 1449 1444 1449 1441 1453 1432 1417 1412 1424 1431 1432 1434 1439 1443 1449 1454 1460 1467 1471 1476 1481 1482 1487 1491 1494 1496 1498 1498 1498 1500 1501 1501 1501 1501 1498 1497 1496
1465 1459 1440 1441 1443 1442 1442 1441 1454 1451 1460 1446 1423 1419 1416 1425 1425 1429 1433 1435 1439 1446 1452 1457 1463 1467 1472 1473 1481 1485 1488 1490 1494 1496 1496 1496 1496 1499 1499 1500 1500 1497 1496 1495
1469 1470 1448 1448 1439 1437 1444 1444 1443 1438 1434 1441 1435 1420 1406 1416 1421 1420 1432 1435 1437 1441 1447 1452 1458 1465 1468 1470 1477 1481 1483 1488 1491 1493 1495 1493 1495 1496 1497 1498 1497 1496 1495 1495
1469 1473 1460 1444 1440 1436 1438 1434 1431 1439 1439 1430 1433 1426 1411 1418 1422 1420 1425 1431 1435 1439 1443 1450 1453 1459 1462 1466 1472 1476 1479 1483 1488 1491 1491 1491 1494 1494 1494 1496 1496 1495 1495 1494
1470 1466 1456 1440 1434 1433 1437 1434 1433 1437 1435 1437 1442 1422 1415 1418 1424 1421 1422 1428 1431 1436 1440 1445 1448 1455 1457 1464 1468 1472 1476 1481 1485 1487 1488 1490 1490 1492 1493 1494 1495 1494 1494 1493
1473 1468 1464 1454 1443 1450 1450 1437 1441 1448 1448 1427 1425 1417 1407 1413 1421 1421 1421 1424 1429 1431 1437 1441 1445 1451 1455 1461 1464 1469 1472 1477 1482 1484 1484 1488 1489 1490 1491 1493 1493 1493 1493 1492
1465 1462 1459 1453 1448 1445 1444 1444 1439 1442 1437 1436 1424 1420 1404 1409 1413 1419 1420 1424 1428 1428 1431 1435 1440 1446 1451 1456 1460 1465 1469 1473 1477 1480 1482 1484 1487 1488 1489 1491 1492 1492 1492 1491
1453 1453 1449 1448 1439 1439 1439 1433 1430 1429 1423 1420 1416 1406 1405 1410 1411 1415 1415 1418 1418 1422 1424 1431 1436 1440 1444 1449 1455 1460 1465 1469 1472 1476 1479 1481 1484 1486 1487 1489 1491 1491 1491 1491
1449 1448 1447 1440 1429 1430 1436 1425 1422 1412 1407 1409 1409 1394 1395 1396 1403 1404 1403 1406 1409 1412 1418 1423 1429 1433 1437 1443 1449 1455 1461 1465 1468 1473 1476 1479 1482 1484 1486 1488 1490 1490 1490 1490
1444 1445 1445 1437 1429 1430 1405 1399 1398 1396 1393 1393 1397 1386 1389 1387 1394 1398 1398 1399 1403 1409 1414 1420 1423 1428 1433 1440 1446 1452 1458 1461 1465 1470 1474 1477 1480 1482 1485 1488 1489 1489 1490 1490
1431 1433 1435 1432 1416 1404 1398 1394 1391 1396 1385 1381 1382 1380 1382 1390 1396 1398 1397 1398 1402 1406 1411 1414 1421 1426 1430 1435 1440 1447 1452 1456 1461 1466 1470 1474 1477 1480 1483 1486 1487 1488 1489 1488
1421 1425 1432 1421 1418 1402 1384 1389 1390 1387 1382 1378 1377 1375 1379 1386 1391 1387 1390 1394 1398 1403 1408 1412 1418 1423 1428 1433 1436 1442 1447 1452 1457 1462 1466 1470 1474 1476 1480 1482 1484 1486 1486 1486
1417 1423 1419 1412 1414 1406 1388 1389 1390 1389 1385 1382 1379 1376 1377 1382 1382 1384 1388 1392 1398 1401 1406 1412 1416 1420 1425 1429 1433 1439 1444 1448 1454 1459 1462 1466 1469 1472 1476 1479 1482 1483 1484 1484
1402 1408 1402 1404 1405 1396 1395 1391 1391 1393 1389 1388 1386 1383 1380 1381 1384 1386 1389 1391 1395 1398 1405 1410 1413 1418 1421 1427 1432 1437 1441 1446 1452 1456 1460 1462 1466 1469 1473 1475 1477 1479 1481 1482
1408 1399 1393 1396 1390 1395 1397 1398 1397 1396 1395 1391 1390 1385 1383 1383 1384 1386 1388 1393 1396 1400 1404 1408 1412 1415 1419 1426 1430 1435 1439 1443 1449 1453 1457 1460 1464 1467 1471 1473 1474 1477 1479 1480
1397 1398 1398 1399 1393 1393 1394 1394 1396 1397 1395 1390 1388 1386 1383 1383 1383 1386 1390 1392 1396 1401 1403 1405 1411 1413 1417 1423 1428 1433 1436 1440 1445 1450 1454 1458 1461 1465 1468 1471 1473 1475 1477 1479
1396 1397 1393 1390 1390 1390 1392 1393 1393 1392 1391 1388 1387 1385 1383 1383 1384 1387 1390 1392 1395 1397 1401 1404 1408 1412 1416 1420 1425 1429 1432 1437 1442 1447 1451 1455 1459 1461 1465 1468 1471 1473 1475 1477
1394 1392 1391 1389 1388 1388 1389 1390 1389 1388 1388 1385 1386 1384 1383 1385 1387 1388 1390 1390 1392 1395 1398 1402 1405 1410 1413 1417 1421 1425 1429 1433 1439 1443 1447 1451 1454 1458 1462 1464 1466 1468 1470 1473